Weather Data

Pearl Creek Farm: 8878 N Farm Road 75, Walnut Grove MO 65770

<== Previous Day (Tuesday 01 Sep 2015) | Next Day (Thursday 03 Sep 2015) ==>

Summary Precipitation Data For Wednesday 02 September 2015

ElementValueUnits
Precipitation0"
Notes(none)
SourcePearl Creek Farm

Summary Temperature Data For Wednesday 02 September 2015

ElementValueUnits
High Temperature88 oF
Low Temperature69 oF
Average Temperature77 oF
High Humidity91 %
Low Humidity64 %
Average Humidity82 %
SourcePearl Creek Farm

Detail Temperature Data For Wednesday 02 September 2015

Date / TimeTemp (F)RH (%)Dew Pt (F)Report Date / TimeSource
2015-09-02 00:00:00 72 89 68.4 2015-09-07 20:25:01 Pearl Creek Farm
2015-09-02 00:30:00 72 89 68.6 2015-09-07 20:25:01 Pearl Creek Farm
2015-09-02 01:00:00 72 89 68.6 2015-09-07 20:25:01 Pearl Creek Farm
2015-09-02 01:30:00 72 90 68.7 2015-09-07 20:25:01 Pearl Creek Farm
2015-09-02 02:00:00 71 90 67.8 2015-09-07 20:25:01 Pearl Creek Farm
2015-09-02 02:30:00 71 91 68.1 2015-09-07 20:25:01 Pearl Creek Farm
2015-09-02 03:00:00 71 90 67.8 2015-09-07 20:25:01 Pearl Creek Farm
2015-09-02 03:30:00 70 90 66.8 2015-09-07 20:25:01 Pearl Creek Farm
2015-09-02 04:00:00 70 90 66.8 2015-09-07 20:25:01 Pearl Creek Farm
2015-09-02 04:30:00 70 90 66.9 2015-09-07 20:25:01 Pearl Creek Farm
2015-09-02 05:00:00 70 90 66.8 2015-09-07 20:25:01 Pearl Creek Farm
2015-09-02 05:30:00 69 90 65.8 2015-09-07 20:25:01 Pearl Creek Farm
2015-09-02 06:00:00 69 90 65.9 2015-09-07 20:25:01 Pearl Creek Farm
2015-09-02 06:30:00 69 91 66.3 2015-09-07 20:25:01 Pearl Creek Farm
2015-09-02 07:00:00 69 91 66.3 2015-09-07 20:25:01 Pearl Creek Farm
2015-09-02 07:30:00 69 91 66.3 2015-09-07 20:25:01 Pearl Creek Farm
2015-09-02 08:00:00 71 90 67.8 2015-09-07 20:25:01 Pearl Creek Farm
2015-09-02 08:30:00 73 88 69.2 2015-09-07 20:25:01 Pearl Creek Farm
2015-09-02 09:00:00 74 87 69.9 2015-09-07 20:25:01 Pearl Creek Farm
2015-09-02 09:30:00 75 86 70.5 2015-09-07 20:25:01 Pearl Creek Farm
2015-09-02 10:00:00 77 84 71.8 2015-09-07 20:25:01 Pearl Creek Farm
2015-09-02 10:30:00 78 83 72.2 2015-09-07 20:25:01 Pearl Creek Farm
2015-09-02 11:00:00 80 81 73.5 2015-09-07 20:25:01 Pearl Creek Farm
2015-09-02 11:30:00 81 81 74.4 2015-09-07 20:25:01 Pearl Creek Farm
2015-09-02 12:00:00 83 76 74.6 2015-09-07 20:25:01 Pearl Creek Farm
2015-09-02 12:30:00 84 77 76.0 2015-09-07 20:25:01 Pearl Creek Farm
2015-09-02 13:00:00 84 75 75.0 2015-09-07 20:25:01 Pearl Creek Farm
2015-09-02 13:30:00 85 72 74.7 2015-09-07 20:25:01 Pearl Creek Farm
2015-09-02 14:00:00 86 70 75.1 2015-09-07 20:25:01 Pearl Creek Farm
2015-09-02 14:30:00 87 67 74.5 2015-09-07 20:25:01 Pearl Creek Farm
2015-09-02 15:00:00 88 66 75.2 2015-09-07 20:25:01 Pearl Creek Farm
2015-09-02 15:30:00 88 64 74.0 2015-09-07 20:25:01 Pearl Creek Farm
2015-09-02 16:00:00 88 65 74.5 2015-09-07 20:25:01 Pearl Creek Farm
2015-09-02 16:30:00 87 66 74.0 2015-09-07 20:25:01 Pearl Creek Farm
2015-09-02 17:00:00 87 65 73.6 2015-09-07 20:25:01 Pearl Creek Farm
2015-09-02 17:30:00 86 65 72.6 2015-09-07 20:25:01 Pearl Creek Farm
2015-09-02 18:00:00 85 66 72.1 2015-09-07 20:25:01 Pearl Creek Farm
2015-09-02 18:30:00 84 72 74.0 2015-09-07 20:25:01 Pearl Creek Farm
2015-09-02 19:00:00 83 76 74.4 2015-09-07 20:25:01 Pearl Creek Farm
2015-09-02 19:30:00 81 80 74.1 2015-09-07 20:25:01 Pearl Creek Farm
2015-09-02 20:00:00 80 82 73.8 2015-09-07 20:25:01 Pearl Creek Farm
2015-09-02 20:30:00 78 83 72.4 2015-09-07 20:25:01 Pearl Creek Farm
2015-09-02 21:00:00 77 84 71.8 2015-09-07 20:25:01 Pearl Creek Farm
2015-09-02 21:30:00 76 85 71.2 2015-09-07 20:25:01 Pearl Creek Farm
2015-09-02 22:00:00 75 86 70.5 2015-09-07 20:25:01 Pearl Creek Farm
2015-09-02 22:30:00 74 87 69.9 2015-09-07 20:25:01 Pearl Creek Farm
2015-09-02 23:00:00 73 88 69.1 2015-09-07 20:25:01 Pearl Creek Farm
2015-09-02 23:30:00 73 88 69.1 2015-09-07 20:25:01 Pearl Creek Farm

A total of 48 rows are displayed.